DW8749 Weather Reports


Display with metric or nautical units.
time (UTC)temp
F
wind
direction
speed
MPH
gust
MPH
rain 1hr
in
rain 24hr
in
rain mn
in
humidity
%
barometer
mb
20260903184014 99 205 8.0 24.0 0.00 0.00 0.00 34 1010.3
20260903183514 99 146 11.0 24.0 0.00 0.00 0.00 34 1010.4
20260903183028 99 200 11.0 23.0 0.00 0.00 0.00 34 1010.5
20260903182516 99 178 12.0 22.0 0.00 0.00 0.00 33 1010.6
20260903182015 99 228 11.0 21.0 0.00 0.00 0.00 35 1010.8
20260903181527 99 236 9.0 19.0 0.00 0.00 0.00 34 1010.8
20260903181013 99 196 8.0 22.0 0.00 0.00 0.00 35 1010.8
20260903180506 99 206 10.0 24.0 0.00 0.00 0.00 34 1010.9
20260903180020 98 206 10.0 24.0 0.00 0.00 0.00 35 1011.0
20260903175511 98 192 10.0 24.0 0.00 0.00 0.00 36 1011.1
20260903175010 98 243 9.0 24.0 0.00 0.00 0.00 36 1011.1
20260903174523 98 196 7.0 23.0 0.00 0.00 0.00 36 1011.1
20260903174015 97 237 12.0 24.0 0.00 0.00 0.00 36 1011.1
20260903173514 97 198 11.0 24.0 0.00 0.00 0.00 37 1011.1
20260903173003 97 243 10.0 22.0 0.00 0.00 0.00 38 1011.1
20260903172506 97 211 9.0 19.0 0.00 0.00 0.00 38 1011.1
20260903172006 96 236 10.0 29.0 0.00 0.00 0.00 38 1011.1
20260903171511 96 360 13.0 31.0 0.00 0.00 0.00 37 1011.2
20260903171011 96 188 12.0 31.0 0.00 0.00 0.00 39 1011.2
20260903170510 95 202 12.0 23.0 0.00 0.00 0.00 39 1011.2
20260903170021 95 360 12.0 22.0 0.00 0.00 0.00 40 1011.2
20260903165511 95 191 12.0 26.0 0.00 0.00 0.00 40 1011.3
20260903165011 94 211 10.0 26.0 0.00 0.00 0.00 41 1011.3
20260903164526 94 223 12.0 25.0 0.00 0.00 0.00 41 1011.4
20260903164014 94 360 12.0 21.0 0.00 0.00 0.00 42 1011.5
20260903163502 94 160 12.0 22.0 0.00 0.00 0.00 42 1011.5
20260903163007 93 180 8.0 22.0 0.00 0.00 0.00 44 1011.5
20260903162507 93 195 9.0 22.0 0.00 0.00 0.00 44 1011.6
20260903162006 92 209 10.0 25.0 0.00 0.00 0.00 46 1011.6
20260903161512 92 210 11.0 25.0 0.00 0.00 0.00 46 1011.6
20260903161011 91 189 10.0 20.0 0.00 0.00 0.00 46 1011.5
20260903160511 91 154 11.0 22.0 0.00 0.00 0.00 47 1011.4
20260903160049 90 232 11.0 20.0 0.00 0.00 0.00 48 1011.5
20260903155513 90 186 8.0 20.0 0.00 0.00 0.00 48 1011.5
20260903155013 89 196 13.0 26.0 0.00 0.00 0.00 48 1011.6
20260903154528 89 175 12.0 24.0 0.00 0.00 0.00 49 1011.6
20260903154019 88 360 12.0 23.0 0.00 0.00 0.00 50 1011.6
20260903153505 88 178 12.0 23.0 0.00 0.00 0.00 50 1011.6
20260903153007 88 213 9.0 23.0 0.00 0.00 0.00 50 1011.6
20260903152513 87 163 14.0 22.0 0.00 0.00 0.00 51 1011.6
20260903152010 87 217 11.0 22.0 0.00 0.00 0.00 51 1011.6
20260903151519 87 168 11.0 22.0 0.00 0.00 0.00 51 1011.6
20260903151011 87 360 12.0 22.0 0.00 0.00 0.00 51 1011.7
20260903150514 87 201 11.0 23.0 0.00 0.00 0.00 52 1011.6
20260903150030 86 167 9.0 23.0 0.00 0.00 0.00 53 1011.7
20260903145513 86 178 11.0 21.0 0.00 0.00 0.00 53 1011.7
20260903145018 85 180 10.0 21.0 0.00 0.00 0.00 54 1011.8
20260903144530 85 167 8.0 22.0 0.00 0.00 0.00 54 1011.8
20260903144006 85 209 11.0 22.0 0.00 0.00 0.00 55 1011.7
20260903143506 84 140 10.0 21.0 0.00 0.00 0.00 55 1011.8
20260903143020 84 194 7.0 18.0 0.00 0.00 0.00 56 1011.8
20260903142510 84 360 8.0 25.0 0.00 0.00 0.00 56 1011.9
20260903142010 84 190 10.0 25.0 0.00 0.00 0.00 56 1011.9
20260903141519 83 163 10.0 22.0 0.00 0.00 0.00 57 1011.9
20260903141012 83 360 10.0 19.0 0.00 0.00 0.00 57 1011.9
20260903140517 82 360 10.0 21.0 0.00 0.00 0.00 58 1011.8
20260903140030 82 360 8.0 23.0 0.00 0.00 0.00 58 1011.8
20260903135517 82 360 11.0 26.0 0.00 0.00 0.00 58 1011.9
20260903135017 81 360 10.0 26.0 0.00 0.00 0.00 59 1011.9
20260903134506 81 360 8.0 14.0 0.00 0.00 0.00 60 1011.9
20260903134006 80 178 6.0 17.0 0.00 0.00 0.00 61 1011.9
20260903133508 80 167 9.0 17.0 0.00 0.00 0.00 61 1011.9
20260903133014 79 132 6.0 12.0 0.00 0.00 0.00 61 1011.9
20260903132510 79 161 6.0 12.0 0.00 0.00 0.00 62 1012.0
20260903132013 79 196 7.0 14.0 0.00 0.00 0.00 62 1012.1
20260903131524 79 191 6.0 14.0 0.00 0.00 0.00 62 1012.0
20260903131017 79 167 5.0 12.0 0.00 0.00 0.00 62 1012.0
20260903130518 79 128 5.0 12.0 0.00 0.00 0.00 62 1012.0
20260903130030 79 360 5.0 11.0 0.00 0.00 0.00 61 1012.0
20260903125517 79 360 5.0 12.0 0.00 0.00 0.00 61 1012.0
20260903125017 79 163 5.0 12.0 0.00 0.00 0.00 61 1012.0
20260903124512 79 360 4.0 12.0 0.00 0.00 0.00 61 1012.1
20260903124010 79 134 5.0 11.0 0.00 0.00 0.00 60 1012.0
20260903123512 79 189 6.0 10.0 0.00 0.00 0.00 60 1012.0
20260903123023 79 214 5.0 13.0 0.00 0.00 0.00 60 1011.9
20260903122518 79 199 6.0 13.0 0.00 0.00 0.00 60 1011.9
20260903122014 79 192 5.0 13.0 0.00 0.00 0.00 59 1011.9
20260903121528 79 168 6.0 13.0 0.00 0.00 0.00 59 1011.9
20260903121018 80 360 5.0 11.0 0.00 0.00 0.00 59 1011.9
20260903120516 80 179 5.0 11.0 0.00 0.00 0.00 59 1011.8
20260903120036 80 190 4.0 11.0 0.00 0.00 0.00 59 1011.8
20260903115517 80 215 6.0 11.0 0.00 0.00 0.00 59 1011.7
20260903115007 80 194 4.0 14.0 0.00 0.00 0.00 58 1011.8
20260903114515 80 360 5.0 13.0 0.00 0.00 0.00 58 1011.8
20260903114010 80 360 4.0 12.0 0.00 0.00 0.00 58 1011.7
20260903113510 80 360 6.0 12.0 0.00 0.00 0.00 58 1011.7
20260903113033 80 165 5.0 12.0 0.00 0.00 0.00 58 1011.7
20260903112516 80 360 7.0 12.0 0.00 0.00 0.00 57 1011.7
20260903112014 81 360 5.0 17.0 0.00 0.00 0.00 57 1011.7
20260903111532 80 190 6.0 15.0 0.00 0.00 0.00 57 1011.7
20260903111015 81 360 5.0 14.0 0.00 0.00 0.00 57 1011.7
20260903110516 81 199 5.0 16.0 0.00 0.00 0.00 57 1011.7
20260903110033 81 170 8.0 16.0 0.00 0.00 0.00 57 1011.8
20260903105516 81 197 6.0 13.0 0.00 0.00 0.00 57 1011.7
20260903105012 81 194 6.0 13.0 0.00 0.00 0.00 57 1011.8
20260903104520 81 163 5.0 12.0 0.00 0.00 0.00 57 1011.9
20260903104013 81 198 7.0 13.0 0.00 0.00 0.00 57 1011.8
20260903103515 81 189 5.0 15.0 0.00 0.00 0.00 57 1011.8
20260903103028 81 188 7.0 15.0 0.00 0.00 0.00 56 1011.8
20260903102514 81 190 5.0 14.0 0.00 0.00 0.00 56 1011.9
20260903102016 81 360 6.0 18.0 0.00 0.00 0.00 56 1011.9
20260903101533 81 360 5.0 18.0 0.00 0.00 0.00 56 1011.8
20260903101015 81 360 7.0 18.0 0.00 0.00 0.00 56 1011.8
20260903100515 81 191 7.0 16.0 0.00 0.00 0.00 56 1011.9
20260903100034 81 214 8.0 16.0 0.00 0.00 0.00 55 1011.9
20260903095512 81 178 5.0 14.0 0.00 0.00 0.00 55 1011.9
20260903095010 81 360 6.0 17.0 0.00 0.00 0.00 55 1011.9
20260903094524 81 360 7.0 19.0 0.00 0.00 0.00 55 1011.9
20260903094012 81 181 7.0 19.0 0.00 0.00 0.00 54 1011.9
20260903093516 81 204 7.0 15.0 0.00 0.00 0.00 54 1011.9
20260903093039 81 360 8.0 15.0 0.00 0.00 0.00 54 1012.0
20260903092516 82 360 5.0 14.0 0.00 0.00 0.00 54 1012.0
20260903092015 82 201 8.0 15.0 0.00 0.00 0.00 54 1012.0
20260903091534 82 150 6.0 17.0 0.00 0.00 0.00 54 1012.0
20260903091019 82 192 8.0 17.0 0.00 0.00 0.00 54 1012.0
20260903090515 82 360 8.0 18.0 0.00 0.00 0.00 53 1012.0
20260903090028 82 165 6.0 18.0 0.00 0.00 0.00 53 1012.0
20260903085514 82 197 8.0 18.0 0.00 0.00 0.00 53 1012.0
20260903085012 82 191 7.0 15.0 0.00 0.00 0.00 53 1012.0
20260903084504 82 213 6.0 12.0 0.00 0.00 0.00 53 1011.9
20260903084005 82 181 7.0 22.0 0.00 0.00 0.00 52 1011.9
20260903083502 82 196 8.0 22.0 0.00 0.00 0.00 52 1011.9
20260903083006 82 196 8.0 16.0 0.00 0.00 0.00 52 1011.9
20260903082505 82 164 6.0 18.0 0.00 0.00 0.00 52 1011.9
20260903082006 82 360 6.0 18.0 0.00 0.00 0.00 52 1011.9
20260903081514 83 178 6.0 15.0 0.00 0.00 0.00 52 1011.8
20260903081014 83 360 7.0 15.0 0.00 0.00 0.00 52 1011.9
20260903080510 83 206 7.0 15.0 0.00 0.00 0.00 51 1011.8
20260903080031 83 159 8.0 15.0 0.00 0.00 0.00 51 1011.8
20260903075515 83 360 7.0 15.0 0.00 0.00 0.00 51 1011.7
20260903075012 83 136 8.0 15.0 0.00 0.00 0.00 51 1011.7
20260903074504 83 169 8.0 14.0 0.00 0.00 0.00 51 1011.7
20260903074005 83 360 7.0 15.0 0.00 0.00 0.00 51 1011.8
20260903073505 83 153 7.0 16.0 0.00 0.00 0.00 51 1011.8
20260903073015 83 190 6.0 16.0 0.00 0.00 0.00 51 1011.8
20260903072509 83 178 7.0 17.0 0.00 0.00 0.00 50 1011.7
20260903072009 83 160 7.0 18.0 0.00 0.00 0.00 50 1011.7
20260903071530 84 360 9.0 18.0 0.00 0.00 0.00 50 1011.7
20260903071009 84 167 8.0 15.0 0.00 0.00 0.00 50 1011.8
20260903070512 84 200 8.0 15.0 0.00 0.00 0.00 50 1011.8
20260903070026 84 360 7.0 15.0 0.00 0.00 0.00 50 1011.8
20260903065515 84 360 7.0 14.0 0.00 0.00 0.00 50 1011.9
20260903065004 84 172 8.0 17.0 0.00 0.00 0.00 50 1011.9
20260903064509 84 161 7.0 17.0 0.00 0.00 0.00 50 1011.9
20260903064003 84 360 8.0 14.0 0.00 0.00 0.00 50 1011.8
20260903063508 84 163 7.0 14.0 0.00 0.00 0.00 49 1011.9
20260903063037 84 198 7.0 18.0 0.00 0.00 0.00 49 1011.8
20260903062009 85 360 9.0 18.0 0.00 0.00 0.00 49 1011.7
20260903061538 85 134 6.0 14.0 0.00 0.00 0.00 49 1011.7
20260903061016 85 172 6.0 14.0 0.00 0.00 0.00 48 1011.7
20260903060515 85 360 8.0 14.0 0.00 0.00 0.00 48 1011.8
20260903060029 85 186 7.0 14.0 0.00 0.00 0.00 48 1011.8
20260903055518 85 360 8.0 17.0 0.00 0.00 0.00 48 1011.7
20260903055006 85 159 9.0 17.0 0.00 0.00 0.00 48 1011.6
20260903054507 85 187 8.0 17.0 0.00 0.00 0.00 48 1011.6
20260903054009 85 155 7.0 13.0 0.00 0.00 0.00 48 1011.7
20260903053506 85 186 6.0 15.0 0.00 0.00 0.00 47 1011.7
20260903053015 85 360 5.0 15.0 0.00 0.00 0.00 47 1011.6
20260903052512 85 159 5.0 14.0 0.00 0.00 0.00 47 1011.6
20260903052014 86 190 6.0 14.0 0.00 0.00 0.00 47 1011.5
20260903051525 86 360 7.0 13.0 0.00 0.00 0.00 47 1011.6
20260903051016 86 163 6.0 12.0 0.00 0.00 0.00 46 1011.6
20260903050515 86 360 7.0 16.0 0.00 0.00 0.00 46 1011.6
20260903050033 86 153 7.0 16.0 0.00 0.00 0.00 46 1011.5
20260903045506 86 161 6.0 12.0 0.00 0.00 0.00 46 1011.5
20260903045007 86 165 6.0 14.0 0.00 0.00 0.00 45 1011.4
20260903044512 86 136 8.0 14.0 0.00 0.00 0.00 45 1011.4
20260903044010 86 158 7.0 17.0 0.00 0.00 0.00 44 1011.4
20260903043510 86 186 6.0 17.0 0.00 0.00 0.00 44 1011.5
20260903043018 86 154 8.0 16.0 0.00 0.00 0.00 44 1011.5
20260903042516 86 176 9.0 15.0 0.00 0.00 0.00 43 1011.5
20260903042012 87 169 9.0 18.0 0.00 0.00 0.00 43 1011.6
20260903041536 87 360 6.0 18.0 0.00 0.00 0.00 43 1011.5
20260903041015 87 360 8.0 18.0 0.00 0.00 0.00 43 1011.6
20260903040515 87 360 9.0 18.0 0.00 0.00 0.00 43 1011.5
20260903040009 87 360 8.0 16.0 0.00 0.00 0.00 43 1011.4
20260903035504 87 188 8.0 14.0 0.00 0.00 0.00 42 1011.4
20260903035006 87 128 6.0 14.0 0.00 0.00 0.00 42 1011.3
20260903034523 87 130 7.0 13.0 0.00 0.00 0.00 42 1011.4
20260903034013 87 159 7.0 13.0 0.00 0.00 0.00 42 1011.5
20260903033510 87 145 6.0 13.0 0.00 0.00 0.00 42 1011.4
20260903033038 87 153 7.0 12.0 0.00 0.00 0.00 41 1011.4
20260903032517 88 156 8.0 14.0 0.00 0.00 0.00 41 1011.4
20260903032013 88 123 7.0 15.0 0.00 0.00 0.00 41 1011.3
20260903031529 88 142 8.0 15.0 0.00 0.00 0.00 40 1011.2
20260903031017 88 171 7.0 13.0 0.00 0.00 0.00 40 1011.2
20260903030515 89 161 7.0 13.0 0.00 0.00 0.00 40 1011.1
20260903030012 89 136 6.0 14.0 0.00 0.00 0.00 39 1011.1
20260903025510 90 152 8.0 15.0 0.00 0.00 0.00 38 1011.1
20260903025009 90 162 11.0 15.0 0.00 0.00 0.00 38 1011.1
20260903024517 90 122 8.0 14.0 0.00 0.00 0.00 38 1011.0
20260903024012 90 145 7.0 14.0 0.00 0.00 0.00 38 1011.0
20260903023515 90 160 7.0 17.0 0.00 0.00 0.00 38 1011.0
20260903023024 91 145 9.0 17.0 0.00 0.00 0.00 37 1011.0
20260903022515 91 167 7.0 13.0 0.00 0.00 0.00 37 1011.0
20260903022016 91 167 6.0 13.0 0.00 0.00 0.00 37 1010.9
20260903021532 91 360 7.0 16.0 0.00 0.00 0.00 37 1010.8
20260903021020 91 138 9.0 16.0 0.00 0.00 0.00 37 1010.7
20260903020507 91 157 10.0 17.0 0.00 0.00 0.00 36 1010.7
20260903020013 92 144 7.0 17.0 0.00 0.00 0.00 36 1010.6
20260903015513 92 145 7.0 15.0 0.00 0.00 0.00 36 1010.5
20260903015012 92 160 9.0 16.0 0.00 0.00 0.00 36 1010.4
20260903014518 92 155 9.0 16.0 0.00 0.00 0.00 36 1010.3
20260903014013 92 158 5.0 15.0 0.00 0.00 0.00 36 1010.2
20260903013516 92 144 8.0 15.0 0.00 0.00 0.00 36 1010.2
20260903013033 92 138 8.0 15.0 0.00 0.00 0.00 35 1010.2
20260903012518 92 153 9.0 15.0 0.00 0.00 0.00 35 1010.2
20260903012018 93 121 5.0 14.0 0.00 0.00 0.00 35 1010.3
20260903011536 93 149 7.0 13.0 0.00 0.00 0.00 34 1010.1
20260903011016 93 167 6.0 13.0 0.00 0.00 0.00 34 1010.1
20260903010508 94 161 6.0 16.0 0.00 0.00 0.00 33 1010.0
20260903010015 94 169 7.0 16.0 0.00 0.00 0.00 34 1009.9
20260903005512 94 195 9.0 16.0 0.00 0.00 0.00 34 1010.1
20260903005013 95 164 7.0 17.0 0.00 0.00 0.00 33 1010.0
20260903004538 95 183 5.0 17.0 0.00 0.00 0.00 33 1009.8
20260903004016 95 175 8.0 17.0 0.00 0.00 0.00 32 1009.8
20260903003519 95 171 7.0 16.0 0.00 0.00 0.00 32 1009.8
20260903003038 95 179 8.0 16.0 0.00 0.00 0.00 32 1009.8
20260903002516 95 178 8.0 15.0 0.00 0.00 0.00 33 1009.9
20260903002017 95 209 7.0 18.0 0.00 0.00 0.00 32 1010.0
20260903001532 96 165 8.0 17.0 0.00 0.00 0.00 32 1010.0
20260903001008 96 195 6.0 17.0 0.00 0.00 0.00 31 1010.0
20260903000511 96 161 7.0 13.0 0.00 0.00 0.00 31 1009.9
20260903000017 97 165 5.0 20.0 0.00 0.00 0.00 31 1009.9
20260902235512 97 171 11.0 20.0 0.00 0.00 0.00 30 1009.9
20260902235013 97 163 11.0 18.0 0.00 0.00 0.00 31 1009.8
20260902234503 97 153 10.0 18.0 0.00 0.00 0.00 30 1009.8
20260902234003 98 174 8.0 19.0 0.00 0.00 0.00 30 1009.9
20260902233505 99 143 10.0 21.0 0.00 0.00 0.00 29 1010.0
20260902233008 99 180 6.0 21.0 0.00 0.00 0.00 27 1010.1
20260902232506 99 187 10.0 20.0 0.00 0.00 0.00 27 1010.1
20260902232007 99 225 9.0 18.0 0.00 0.00 0.00 28 1010.0
20260902231516 100 173 10.0 18.0 0.00 0.00 0.00 27 1010.0
20260902231013 100 205 8.0 16.0 0.00 0.00 0.00 27 1010.0
20260902230517 100 194 7.0 16.0 0.00 0.00 0.00 27 1009.9
20260902230003 100 157 9.0 16.0 0.00 0.00 0.00 27 1009.9
20260902225503 100 189 9.0 21.0 0.00 0.00 0.00 27 1009.9
20260902225003 101 147 9.0 21.0 0.00 0.00 0.00 27 1010.0
20260902224505 101 198 9.0 17.0 0.00 0.00 0.00 27 1010.0
20260902224005 101 158 8.0 16.0 0.00 0.00 0.00 27 1009.9
20260902223507 101 175 10.0 21.0 0.00 0.00 0.00 26 1010.1
20260902223011 101 215 10.0 21.0 0.00 0.00 0.00 27 1010.3
20260902222508 101 202 7.0 27.0 0.00 0.00 0.00 27 1010.3
20260902222009 101 161 9.0 27.0 0.00 0.00 0.00 26 1010.3
20260902221522 101 202 14.0 27.0 0.00 0.00 0.00 27 1010.3
20260902221011 101 188 9.0 21.0 0.00 0.00 0.00 27 1010.2
20260902220514 101 198 9.0 19.0 0.00 0.00 0.00 27 1010.3
20260902220006 101 186 6.0 17.0 0.00 0.00 0.00 28 1010.2
20260902215503 100 140 10.0 16.0 0.00 0.00 0.00 27 1010.1
20260902215003 100 155 8.0 22.0 0.00 0.00 0.00 27 1010.3
20260902214508 101 146 7.0 22.0 0.00 0.00 0.00 27 1010.4
20260902214008 101 188 7.0 20.0 0.00 0.00 0.00 27 1010.3
20260902213508 101 148 8.0 20.0 0.00 0.00 0.00 28 1010.5
20260902213023 101 172 10.0 20.0 0.00 0.00 0.00 28 1010.6
20260902212509 102 188 11.0 20.0 0.00 0.00 0.00 27 1010.7
20260902212013 102 172 9.0 19.0 0.00 0.00 0.00 27 1010.7
20260902211520 102 175 9.0 18.0 0.00 0.00 0.00 26 1010.8
20260902211015 102 188 5.0 18.0 0.00 0.00 0.00 26 1010.7
20260902210503 102 221 7.0 18.0 0.00 0.00 0.00 27 1010.9
20260902210013 102 160 10.0 20.0 0.00 0.00 0.00 27 1010.9
20260902205502 102 209 11.0 20.0 0.00 0.00 0.00 26 1011.0
20260902205006 102 196 12.0 19.0 0.00 0.00 0.00 26 1011.2
20260902204507 102 199 9.0 19.0 0.00 0.00 0.00 27 1011.2
20260902204010 102 219 8.0 22.0 0.00 0.00 0.00 27 1011.3
20260902203513 102 207 11.0 21.0 0.00 0.00 0.00 27 1011.4
20260902203022 102 196 10.0 20.0 0.00 0.00 0.00 27 1011.4
20260902202513 102 204 11.0 23.0 0.00 0.00 0.00 27 1011.5
20260902202014 102 194 12.0 23.0 0.00 0.00 0.00 26 1011.6
20260902201526 102 244 10.0 23.0 0.00 0.00 0.00 28 1011.7
20260902201017 102 250 9.0 23.0 0.00 0.00 0.00 27 1011.8
20260902200503 102 205 7.0 20.0 0.00 0.00 0.00 27 1011.8
20260902200008 102 208 9.0 20.0 0.00 0.00 0.00 28 1012.0
20260902195504 101 181 7.0 15.0 0.00 0.00 0.00 28 1012.0
20260902195008 101 194 6.0 25.0 0.00 0.00 0.00 28 1012.0
20260902194511 101 232 9.0 25.0 0.00 0.00 0.00 28 1012.0
20260902194011 101 189 9.0 21.0 0.00 0.00 0.00 28 1012.0
20260902193510 101 205 10.0 18.0 0.00 0.00 0.00 29 1012.2
20260902193020 101 205 7.0 17.0 0.00 0.00 0.00 29 1012.3
20260902192511 101 246 7.0 19.0 0.00 0.00 0.00 29 1012.4
20260902192016 101 202 8.0 20.0 0.00 0.00 0.00 29 1012.5
20260902191543 101 217 11.0 20.0 0.00 0.00 0.00 29 1012.6
20260902191005 100 227 9.0 20.0 0.00 0.00 0.00 31 1012.6
20260902190505 100 190 9.0 19.0 0.00 0.00 0.00 30 1012.7
20260902190008 100 360 10.0 24.0 0.00 0.00 0.00 31 1012.8
20260902185506 100 190 12.0 24.0 0.00 0.00 0.00 30 1012.9
20260902185009 100 163 8.0 15.0 0.00 0.00 0.00 32 1013.0
20260902184519 100 203 9.0 19.0 0.00 0.00 0.00 30 1013.0